GFSWCAN_500_rhum_045.txt.gz
RH
13 54 97 100 100 100 100 100 100 100 100 100 98 98 99 100 99 95 95 95 82 64 62 62 70 66 59 63 79 85 100 96 88 68 64 54 52 52 50 46 43 34 36 29 30 28 21 24 65 100 97 80 58 98
100 100 100 100 100 97 85 75 72 65 58 58 66 75 70 57 46 40 43 84 100 98 71 79 73 67 76 89 99 99 100 100 96 99 72 70 55 62 66 55 52 39 36 42 35 30 97 66 87 96 100 100 72 79
100 100 88 74 76 73 62 50 44 46 50 52 55 60 60 58 56 54 40 70 92 93 83 81 74 87 83 90 96 90 92 100 99 94 87 88 70 55 48 48 57 52 63 54 38 27 96 97 96 98 98 100 98 98
100 100 99 95 87 74 64 53 48 40 34 31 29 34 95 94 85 97 99 83 100 92 75 62 82 100 100 95 82 83 86 94 89 89 100 92 65 55 48 54 61 86 77 55 36 32 96 100 100 93 94 98 100 96
57 54 53 70 91 96 94 67 51 52 51 53 60 73 100 92 69 54 42 44 65 96 83 66 80 100 100 100 98 89 86 70 64 89 72 69 70 72 68 80 84 86 76 59 37 43 85 99 100 100 98 99 99 100
86 76 88 100 99 99 97 69 44 52 69 72 60 75 91 100 89 99 78 61 62 76 76 72 74 92 93 96 87 100 86 98 82 76 69 81 93 100 100 100 99 86 78 51 35 60 98 100 100 100 100 100 100 100
51 62 80 100 81 80 61 65 68 83 93 100 99 99 98 88 72 76 60 50 63 60 52 65 67 73 79 85 95 100 96 96 86 89 44 81 95 100 100 100 100 100 80 51 45 62 84 100 100 99 97 100 100 90
71 96 65 59 91 86 89 94 85 100 100 100 100 94 90 93 91 74 64 55 52 64 100 100 86 82 65 54 45 69 98 100 100 92 76 57 100 100 94 83 73 66 45 44 69 92 96 100 100 95 96 94 87 93
78 70 41 71 93 100 100 93 87 78 75 82 80 90 95 65 55 93 100 91 93 100 99 100 100 100 100 72 69 94 97 98 94 93 91 96 100 100 80 67 52 40 45 70 93 100 100 100 88 93 95 84 63 64
96 75 40 60 91 96 100 99 86 94 100 100 100 98 96 99 100 100 100 100 100 100 100 98 90 84 87 87 86 94 90 100 100 100 100 97 96 100 100 65 60 97 98 100 100 97 72 81 87 85 79 64 57 62
100 97 68 95 67 84 87 88 94 95 100 100 100 100 100 100 100 100 100 100 100 100 100 100 100 100 90 100 100 100 100 99 98 94 90 66 70 95 88 74 70 99 100 99 99 100 91 90 81 82 79 74 66 56
88 97 100 99 100 85 76 69 72 80 100 100 100 100 100 100 99 100 100 99 98 99 94 100 100 96 98 100 100 96 99 99 87 77 75 71 93 100 100 100 91 99 100 100 100 100 100 95 100 100 100 97 96 93
100 98 91 99 100 100 100 100 98 90 83 92 100 99 95 75 76 78 74 82 71 76 78 70 72 82 93 90 88 95 84 76 77 64 60 77 99 100 100 100 100 100 100 100 100 100 98 100 97 100 100 100 100 78
100 100 100 98 89 94 96 98 94 91 86 84 85 88 80 78 75 73 78 81 72 69 81 86 93 92 99 100 100 99 83 80 65 54 68 88 91 100 100 100 100 100 100 100 100 100 98 90 62 39 27 24 33 64
100 100 100 100 100 100 100 100 98 99 98 98 94 95 95 90 87 87 82 81 73 81 76 84 95 100 100 100 95 75 59 54 50 50 61 72 75 88 100 100 98 95 78 55 57 79 98 98 100 100 100 100 100 100
95 91 100 100 100 100 99 100 100 100 100 98 99 94 87 73 54 52 62 86 99 99 99 97 98 78 91 96 92 60 41 35 41 47 56 68 77 79 74 90 100 92 64 55 98 100 100 100 100 100 100 100 100 100
95 99 98 89 76 85 97 90 83 77 75 80 73 64 68 55 78 92 100 100 100 100 100 100 81 57 58 70 76 79 96 99 95 68 50 55 70 72 83 100 100 100 100 99 100 100 100 100 100 100 100 100 100 100
100 100 96 100 100 92 85 70 63 56 57 64 65 78 99 100 100 99 100 100 100 100 100 100 77 50 52 71 94 98 99 99 100 100 100 94 94 100 100 100 99 100 100 100 100 100 100 100 99 98 92 84 78 69
100 100 100 100 100 100 91 65 43 37 50 58 54 92 100 100 100 100 100 100 100 100 88 84 78 83 98 99 100 100 100 100 100 100 100 100 100 100 100 100 100 100 98 85 70 51 38 26 20 18 16 15 13 13
100 100 100 100 90 80 70 44 27 33 44 54 93 100 100 100 99 97 92 75 77 89 99 100 100 100 100 100 100 100 100 100 100 100 100 99 94 85 59 36 24 19 16 15 15 15 15 15 15 15 15 14 14 14
98 100 100 87 66 52 30 19 29 38 62 90 100 93 88 94 98 96 77 57 63 100 98 92 96 99 100 95 80 43 23 15 14 14 15 16 17 18 18 18 18 18 18 18 18 18 17 16 16 15 14 13 12 11
100 53 30 41 36 23 23 35 46 58 67 89 85 54 54 54 59 63 61 84 99 94 87 55 22 13 14 15 16 18 20 21 21 21 21 21 21 21 20 20 18 17 16 15 14 13 13 12 11 10 9 9 8 8
100 95 64 45 48 32 37 45 43 45 48 55 62 61 59 62 70 67 75 50 23 20 13 12 12 13 15 16 18 20 21 22 23 23 23 21 20 18 17 17 16 15 14 13 11 10 9 9 9 10 10 11 12 13
90 100 100 100 73 33 45 48 62 57 54 50 73 98 92 93 80 29 14 16 14 12 11 11 11 12 15 18 21 24 25 25 24 22 21 20 19 18 17 16 14 12 10 9 10 11 12 13 15 16 18 20 21 20
53 51 58 70 66 69 62 70 68 66 57 72 49 22 17 15 15 16 13 11 10 10 10 12 15 20 24 26 28 29 28 26 24 22 21 20 18 16 13 10 9 10 12 14 18 19 20 22 22 21 20 18 14 15
51 34 18 13 12 13 19 19 21 19 11 12 12 11 11 10 9 9 9 10 12 15 20 25 28 30 32 34 34 31 27 25 23 23 21 17 12 9 10 12 14 16 18 21 23 25 25 23 15 13 14 18 26 29
45 26 16 10 8 8 8 7 8 8 8 8 8 8 8 9 10 11 14 21 28 29 30 32 35 38 39 38 33 29 28 27 27 23 15 11 11 12 12 13 16 20 22 22 24 23 20 14 16 24 29 30 27 20
25 13 10 9 8 8 8 8 8 8 9 9 11 12 14 16 20 27 31 33 32 34 38 43 48 48 45 40 38 38 33 30 21 13 12 11 9 10 12 16 23 26 26 23 22 17 16 22 31 31 22 16 15 17
37 31 24 18 11 10 10 11 11 12 14 18 23 23 24 27 33 36 37 38 39 46 53 56 55 52 51 49 42 34 29 19 13 13 10 8 8 11 16 23 30 28 25 21 18 21 29 30 20 16 16 18 26 31
70 39 19 13 13 13 14 17 26 39 46 41 33 31 38 46 47 43 43 49 57 62 62 61 60 56 51 43 35 27 18 15 14 12 11 10 12 16 23 29 27 21 20 22 28 26 18 16 16 17 24 29 30 36
25 21 21 17 17 19 27 47 58 50 38 33 42 53 55 52 47 50 58 65 64 64 65 62 57 52 46 35 26 19 16 16 14 14 14 14 15 17 18 20 23 26 27 22 17 16 16 16 21 26 29 36 38 31
37 30 28 24 24 28 42 51 52 53 56 57 58 56 53 55 62 69 64 62 63 62 60 59 55 48 36 26 22 19 19 17 14 16 18 21 24 26 28 27 24 19 17 17 17 16 18 24 27 33 39 36 32 33
50 35 28 28 38 46 55 65 72 72 67 61 58 61 68 74 69 64 65 64 63 64 62 57 47 35 27 23 22 22 23 17 16 17 19 21 24 26 24 22 20 19 18 17 16 18 26 28 36 41 37 35 38 38

GFSWCAN_500_rhum_048.txt.gz
RH
15 14 13 12 12 13 15 13 10 10 15 32 59 90 99 100 100 98 94 100 100 100 100 100 100 100 100 96 82 98 100 96 91 63 56 56 45 46 46 43 32 28 31 31 38 32 22 28 18 23 50 53 36 56
77 87 96 98 100 100 100 100 100 100 100 100 100 100 100 100 100 98 94 100 100 100 100 100 100 100 100 100 100 93 100 100 94 67 54 61 54 47 56 48 49 39 42 49 41 36 39 32 35 30 84 80 58 42
100 100 100 100 100 100 100 100 100 100 100 100 100 100 100 100 100 98 100 100 100 97 95 84 81 94 93 89 96 92 99 100 90 83 74 64 53 47 42 44 52 56 63 51 54 36 47 45 35 32 30 56 82 61
100 100 100 100 100 100 100 99 86 75 70 69 73 84 90 92 94 97 94 96 98 94 96 82 78 89 98 100 98 100 100 100 100 99 91 72 62 65 64 65 54 61 57 52 46 42 41 51 52 34 28 91 100 68
66 71 70 64 57 61 79 95 93 73 56 44 38 38 50 63 72 73 55 55 52 54 49 46 62 94 100 100 100 100 100 100 100 100 99 84 81 86 85 80 69 64 54 51 46 46 46 65 56 35 47 88 92 77
80 97 89 82 84 90 98 99 92 84 73 59 52 48 38 35 41 100 100 94 73 72 56 49 64 81 93 98 100 100 100 100 100 99 98 100 98 88 71 54 44 34 29 29 30 42 58 68 59 33 52 100 100 100
97 82 72 83 88 78 64 58 56 55 55 53 55 60 68 75 83 97 84 70 82 97 86 74 75 77 73 77 96 94 100 100 100 97 82 90 82 60 62 59 46 38 39 40 80 74 82 68 39 30 80 100 100 100
37 80 100 91 100 100 100 100 97 73 76 65 80 90 100 100 100 100 74 84 63 49 40 31 39 70 57 47 62 98 99 100 98 96 100 71 85 86 66 46 47 66 94 100 100 100 94 63 41 37 75 100 100 100
43 89 100 99 100 100 100 100 71 82 86 100 100 100 100 97 100 99 100 86 56 55 38 35 65 66 75 73 82 98 98 88 78 70 82 84 72 64 39 48 60 68 94 100 100 75 58 56 49 68 86 100 95 100
53 87 88 99 100 100 99 86 94 100 99 100 100 100 100 100 100 100 76 56 63 80 96 100 99 100 69 80 60 66 84 98 76 92 100 82 51 50 54 61 95 97 85 87 73 51 41 81 99 99 100 98 88 99
63 80 81 97 100 100 100 99 79 75 99 100 95 90 99 99 100 100 94 71 85 89 96 100 98 100 81 100 77 63 55 62 75 99 81 83 100 98 97 96 100 98 97 86 92 100 99 60 88 99 98 93 77 81
92 76 82 85 87 95 100 100 100 100 93 77 78 94 98 100 99 100 99 100 95 100 100 100 100 100 96 100 100 69 64 70 81 93 98 81 87 86 90 94 100 100 100 86 91 100 99 94 89 76 83 77 83 83
100 90 77 74 88 84 100 97 100 90 77 64 84 100 100 100 97 100 95 100 100 98 96 100 98 94 82 89 78 92 82 60 62 72 72 74 75 66 70 91 100 100 100 100 95 100 92 99 86 94 96 90 86 83
100 100 100 97 85 84 89 93 95 100 100 100 100 96 87 80 83 95 99 84 86 88 85 84 87 99 100 90 87 74 56 62 63 66 63 58 59 68 82 88 97 100 100 95 93 97 98 100 100 100 100 96 85 97
99 100 100 100 100 100 100 97 84 96 94 93 90 89 83 84 79 75 79 85 87 85 89 92 99 100 98 98 86 88 81 68 63 68 77 68 65 85 94 97 100 98 96 99 100 94 90 90 100 100 99 91 77 62
92 96 99 93 94 93 100 100 93 95 99 100 100 99 100 99 98 98 96 96 88 84 79 87 96 95 82 89 94 98 91 79 69 66 64 63 68 75 80 83 97 100 100 100 100 100 100 100 100 100 100 100 100 100
99 96 90 96 97 94 94 100 100 100 100 98 93 85 79 77 68 66 66 81 68 79 94 100 100 88 79 90 100 100 89 72 63 53 59 61 56 60 62 74 94 100 100 100 100 100 100 100 100 100 100 100 100 100
100 95 88 81 81 81 88 93 86 79 79 68 68 62 76 94 99 100 100 100 100 100 100 100 100 80 74 88 100 100 100 100 100 100 98 100 100 100 100 100 100 100 100 100 100 100 100 100 100 98 91 74 56 39
100 100 98 81 62 59 71 67 65 59 81 96 98 100 100 100 100 100 100 100 100 100 100 88 66 72 90 100 100 100 100 100 100 100 100 100 100 100 100 100 100 100 100 98 92 81 57 32 20 17 16 16 16 16
96 91 84 77 64 47 38 43 49 65 88 99 100 100 100 100 99 100 100 100 100 100 80 78 88 100 100 100 100 100 100 100 100 100 97 92 87 76 59 44 41 35 28 21 19 18 18 19 18 18 18 17 17 16
94 73 54 54 51 29 32 41 50 75 95 100 100 100 100 77 82 99 99 100 98 98 98 94 98 100 100 100 100 94 71 38 19 17 17 18 18 20 20 20 20 20 20 20 20 19 18 18 17 16 14 13 12 10
93 67 44 38 26 24 33 44 79 100 100 90 81 71 72 64 57 68 57 84 91 84 75 67 54 35 21 16 15 16 17 18 19 19 19 20 20 20 21 21 21 20 19 19 17 16 14 12 11 10 9 8 8 8
39 32 24 17 22 27 38 66 95 88 69 61 54 58 61 70 68 62 48 30 25 16 14 13 13 14 14 14 14 16 18 21 24 26 27 27 25 24 22 21 20 19 17 14 12 10 9 9 9 10 11 13 14 16
20 18 19 24 35 47 56 70 78 75 65 69 87 89 87 69 46 21 15 17 16 14 12 11 11 14 18 23 27 29 31 32 33 31 28 27 25 23 22 20 17 14 11 9 10 11 13 14 17 19 20 21 22 19
42 46 44 48 48 49 42 56 67 67 55 61 53 35 32 20 20 16 14 13 12 11 14 19 25 29 30 31 33 35 36 36 33 31 30 28 26 23 18 13 9 8 10 11 13 16 17 20 23 26 26 22 14 13
59 60 48 45 46 45 44 50 49 40 31 19 15 14 13 11 10 10 11 12 16 22 30 33 33 33 34 36 40 41 40 38 36 34 30 26 21 13 8 8 9 10 9 10 14 18 22 24 25 25 18 15 22 28
15 16 19 25 21 20 20 16 14 12 11 11 10 9 10 10 12 14 18 26 33 38 40 38 38 40 44 44 44 42 41 39 33 29 27 18 9 9 10 9 8 9 11 14 20 25 25 24 22 17 20 29 30 18
16 11 9 8 8 9 9 9 8 8 9 9 10 14 18 24 29 34 37 42 45 46 44 45 45 47 47 46 46 42 38 34 34 30 16 10 11 11 10 8 9 11 18 25 27 25 23 19 19 29 29 18 15 18
33 22 15 13 10 9 9 9 9 10 15 24 37 48 45 43 39 44 52 54 52 49 47 49 49 49 48 45 42 40 41 39 30 17 12 13 13 12 11 12 15 21 24 22 20 19 22 29 26 16 16 17 21 26
50 51 42 29 18 13 13 14 16 24 39 56 57 51 46 53 59 61 59 55 53 53 52 51 49 48 48 48 48 48 44 30 18 15 16 16 15 14 14 15 16 18 21 24 28 27 19 17 16 16 19 23 24 31
65 51 41 28 27 26 21 21 24 41 57 62 63 67 67 67 66 62 60 60 58 57 53 49 50 53 54 55 52 43 29 21 19 21 22 17 17 20 22 26 28 29 26 20 17 18 18 17 17 20 24 27 37 40
49 32 28 29 34 32 30 32 39 52 62 70 78 79 75 69 66 68 66 64 61 55 55 57 58 58 56 53 37 23 20 21 26 27 23 19 19 21 24 26 26 23 21 20 19 19 17 17 19 22 26 36 43 39
49 38 37 38 40 32 31 35 45 61 81 87 80 73 71 75 75 71 68 63 60 60 61 60 59 55 40 24 20 22 28 31 28 24 22 21 21 20 21 23 23 23 22 21 20 19 17 19 23 27 38 46 44 37

GFSWCAN_500_rhum_051.txt.gz
RH
14 14 15 15 14 17 21 26 35 40 40 39 33 25 21 15 13 18 43 64 70 65 76 100 100 100 100 99 100 100 100 100 88 75 80 76 52 49 36 31 32 35 34 31 27 20 17 24 28 30 27 22 22 15
100 100 98 78 37 20 13 13 14 16 17 22 22 17 11 14 18 36 55 68 95 99 82 100 100 100 100 100 100 98 100 100 99 72 66 70 66 68 59 45 40 37 38 38 27 22 24 28 32 32 34 26 28 24
100 100 100 100 100 100 100 100 100 100 82 33 13 10 21 29 32 56 85 98 100 94 100 100 99 100 100 100 100 99 100 100 95 88 71 63 51 54 53 51 58 47 42 33 30 29 36 38 40 40 48 42 35 30
100 100 100 100 100 100 100 100 100 100 100 100 100 100 98 98 100 100 100 100 100 100 100 100 98 99 100 100 100 100 100 100 100 96 81 66 54 48 52 54 52 57 51 47 36 38 43 51 50 44 49 45 34 33
74 72 84 85 77 77 91 100 100 100 100 100 100 100 100 100 100 100 100 100 100 100 100 100 95 100 100 100 100 100 99 100 100 98 82 69 63 58 57 52 47 58 57 52 49 50 48 49 52 49 48 43 34 31
96 94 82 82 79 74 71 60 58 94 100 100 99 100 100 100 100 100 100 100 100 100 100 89 100 100 99 100 100 96 100 100 100 95 92 88 88 83 63 59 65 70 75 72 62 59 59 54 55 48 43 38 32 24
82 98 83 84 73 73 72 79 87 93 100 99 87 73 68 83 99 97 90 100 100 100 99 97 91 84 73 67 67 79 100 100 100 100 88 94 100 98 83 76 78 86 79 69 58 46 36 29 26 26 34 47 41 24
94 97 100 100 100 100 99 84 68 71 90 98 81 68 66 50 49 62 70 98 100 100 96 68 62 66 63 67 59 62 85 100 100 100 94 96 88 74 71 62 64 66 60 42 36 41 46 35 64 78 91 84 61 41
100 95 92 89 75 59 71 75 84 89 78 74 90 100 100 84 58 59 100 100 100 94 78 70 68 78 70 70 64 54 92 86 91 100 100 97 100 96 64 50 44 52 46 50 72 70 89 94 100 99 100 97 71 54
86 90 99 90 60 95 92 95 100 100 100 90 100 100 97 78 86 92 100 100 81 67 59 49 50 50 65 53 60 62 65 72 93 100 100 94 93 85 42 45 45 41 41 40 71 58 71 79 98 88 79 68 78 94
99 100 99 100 100 82 100 94 84 94 100 100 100 84 100 100 100 100 88 66 65 56 47 49 50 98 89 100 80 81 92 100 100 100 90 54 48 75 98 72 61 85 90 63 55 69 67 58 68 63 87 80 99 100
94 100 100 100 100 100 96 96 100 100 94 89 88 98 98 97 100 83 78 71 50 66 96 91 87 79 72 96 98 94 96 90 93 79 72 57 76 82 64 96 84 74 67 72 79 84 84 62 72 95 100 86 81 86
80 91 100 93 74 100 76 76 90 96 92 84 96 94 70 65 57 43 50 69 96 88 94 100 99 100 99 100 100 100 92 59 50 58 56 46 40 83 84 73 67 79 78 100 100 100 94 88 93 95 85 92 99 76
92 72 78 94 87 75 67 74 92 97 100 100 94 87 68 63 72 85 82 80 100 100 100 100 100 96 85 90 79 69 54 62 50 37 39 47 61 55 52 52 58 95 99 100 100 100 100 100 100 100 100 98 96 100
95 100 96 88 88 100 96 85 87 87 98 100 100 90 90 89 94 98 94 94 87 81 93 100 100 100 100 100 94 79 82 64 51 55 68 69 68 65 71 95 100 99 99 100 100 100 100 100 100 100 100 100 100 100
96 100 100 100 100 100 100 100 100 100 99 90 89 96 99 96 88 85 80 82 89 91 88 90 96 98 98 96 100 95 89 94 92 79 72 72 70 80 89 90 92 97 99 100 100 100 100 100 100 100 100 100 100 100
78 78 83 98 100 100 100 100 100 100 100 100 100 100 100 100 99 100 100 99 98 97 91 88 98 100 95 94 100 100 100 98 100 80 76 89 70 60 62 67 72 88 97 100 100 100 100 100 100 100 100 100 100 100
80 77 76 79 92 90 88 97 100 97 80 75 79 77 77 83 81 84 88 77 71 75 91 100 100 94 82 77 99 100 100 100 100 100 100 98 99 100 90 89 91 100 100 100 100 100 100 100 100 100 100 99 99 96
80 75 75 80 78 80 82 80 78 87 99 85 94 96 98 99 100 100 100 100 100 100 100 100 100 100 98 98 100 100 100 100 100 100 100 100 100 100 100 100 100 100 100 100 100 100 98 90 72 51 35 25 20 18
68 65 58 52 58 60 59 65 92 100 100 100 100 100 100 100 99 100 100 100 100 100 100 99 98 98 100 100 100 100 100 100 100 100 100 100 100 100 97 96 84 68 52 31 23 19 20 20 20 20 19 19 18 18
61 62 53 38 33 40 52 84 100 100 100 100 100 100 100 100 100 100 100 100 97 93 96 100 100 100 100 100 100 100 99 82 31 18 18 19 20 20 21 21 21 22 22 22 22 22 22 21 20 20 17 15 13 12
44 48 43 29 34 45 70 93 98 95 100 99 75 81 78 85 89 88 76 64 74 82 86 84 70 52 32 22 18 19 20 21 21 21 21 22 23 24 25 26 26 26 26 24 23 21 18 15 13 11 10 10 10 10
32 26 24 29 38 57 78 95 94 82 80 65 65 68 63 57 50 49 35 20 18 16 14 14 14 14 14 14 14 16 19 22 26 29 31 32 33 32 31 30 27 25 22 17 14 11 10 9 9 11 12 14 15 16
22 20 23 30 51 70 85 84 61 57 65 80 83 78 63 38 35 22 17 16 15 13 12 11 12 17 24 28 30 31 32 36 38 39 38 38 36 33 29 27 23 18 13 9 8 8 10 11 12 14 17 19 22 25
18 20 27 44 71 95 87 72 58 70 68 74 68 51 25 19 16 15 12 11 11 13 20 32 37 37 36 38 39 41 43 44 43 42 40 35 32 30 28 22 15 9 7 8 10 10 10 10 12 17 23 26 28 27
24 32 44 48 61 55 53 54 59 52 30 21 17 13 12 11 10 11 13 18 26 36 42 45 45 44 45 45 46 46 46 45 42 39 36 33 30 27 18 11 8 9 10 10 9 10 12 17 23 26 28 27 23 18
54 54 64 65 62 55 45 39 25 17 12 11 10 10 11 15 22 29 33 39 46 52 53 52 50 49 50 49 49 46 43 40 39 36 34 34 32 19 11 10 11 11 10 10 11 18 25 29 28 27 23 20 23 30
29 36 32 28 23 19 11 10 9 9 9 10 13 28 43 47 44 42 44 54 60 60 57 56 55 53 52 50 47 44 43 40 39 43 46 33 19 14 14 14 13 13 14 18 22 24 23 22 21 22 27 28 21 18
16 11 11 10 9 9 9 9 10 11 16 22 36 49 53 54 55 62 67 67 64 61 60 59 58 57 53 49 48 48 46 47 50 40 24 17 17 19 19 17 15 16 16 16 19 21 25 28 26 20 18 17 17 20
42 52 42 38 32 23 18 17 17 20 24 30 46 60 65 70 74 75 72 67 66 66 66 64 60 56 54 54 52 51 52 45 26 17 17 20 25 27 23 19 19 21 24 27 28 26 21 18 18 18 17 17 19 20
48 52 56 49 35 30 25 25 22 22 26 34 48 58 70 79 79 73 71 72 72 71 68 63 61 61 60 56 54 45 27 18 17 20 27 30 27 24 21 20 22 25 27 26 24 21 20 20 20 19 18 19 23 24
58 52 44 31 27 25 26 28 27 32 32 36 47 68 86 86 80 78 79 76 74 69 65 65 64 60 56 45 26 18 18 20 28 32 30 25 22 23 23 22 22 23 24 25 24 23 22 21 21 20 20 24 27 36
80 64 51 35 28 27 40 49 46 39 44 58 87 93 90 88 86 82 81 77 71 68 67 64 58 41 23 16 17 20 27 33 34 30 24 23 24 26 25 24 22 22 21 21 22 22 22 22 21 24 28 32 43 47

GFSWCAN_500_rhum_057.txt.gz
RH
88 87 84 90 93 97 98 97 46 17 31 35 71 100 99 82 74 69 70 56 38 29 54 33 21 14 16 32 98 98 100 100 93 53 82 96 95 99 92 100 96 80 51 33 34 74 21 57 31 16 37 47 48 25
94 98 100 100 100 100 100 100 94 19 23 32 66 99 86 71 66 64 56 53 63 44 41 21 19 21 30 66 99 100 100 100 66 73 99 100 100 98 100 97 100 86 49 60 32 39 44 51 38 59 60 52 37 21
100 100 100 100 100 100 100 100 100 37 17 34 64 85 78 67 57 52 70 75 51 34 25 14 34 50 63 100 100 100 100 100 100 98 100 100 100 100 100 98 100 100 97 59 62 59 89 44 31 49 37 32 37 33
100 100 98 92 91 92 100 100 100 69 15 30 50 67 66 64 60 66 61 58 36 22 21 44 61 98 100 98 98 100 98 88 100 100 100 100 100 100 100 100 91 100 97 77 93 100 80 55 40 36 39 33 28 24
100 80 70 76 73 65 62 96 100 100 76 35 26 37 50 55 54 53 42 30 21 26 62 97 100 100 100 100 100 96 100 99 100 100 99 100 100 99 100 100 100 100 92 83 91 76 80 78 39 46 48 35 34 34
82 89 88 78 58 52 73 74 100 100 100 99 59 22 26 30 30 26 24 18 21 54 98 100 100 100 100 100 100 100 100 100 100 100 100 100 100 100 100 93 98 74 75 78 74 87 67 56 42 55 50 41 40 36
87 90 90 80 82 67 54 76 96 100 100 100 100 77 25 16 15 16 16 26 65 98 100 100 99 100 100 99 100 100 100 100 98 100 94 100 100 100 100 95 83 79 74 67 66 64 54 59 45 48 52 50 48 50
85 79 87 92 75 99 69 73 79 100 100 100 100 100 100 96 99 64 68 62 85 100 100 100 100 100 100 100 100 100 99 95 83 81 95 100 100 98 73 79 81 86 80 66 69 64 50 51 56 55 53 52 44 43
100 100 82 89 61 88 95 85 85 99 100 100 100 100 100 100 100 100 100 100 100 100 92 97 100 100 98 100 100 98 91 85 86 87 100 98 97 71 73 89 84 74 62 57 59 52 48 44 36 37 43 54 63 56
100 100 88 93 90 100 100 88 100 100 100 100 100 100 100 100 100 100 100 100 100 100 100 99 98 100 92 92 98 100 100 99 95 100 100 86 72 74 86 87 71 62 56 56 53 43 38 33 30 29 31 37 37 40
82 78 93 94 93 100 97 91 100 100 100 100 100 100 100 100 100 100 100 97 90 91 92 95 99 90 80 84 77 75 69 60 56 78 91 94 61 79 88 95 82 76 68 54 48 41 42 33 24 27 42 41 36 37
68 77 96 98 100 100 98 100 100 100 99 95 99 100 100 100 100 99 92 89 80 75 65 74 82 79 80 84 93 92 92 68 56 74 85 64 55 94 98 97 94 86 64 72 67 70 68 62 65 67 89 92 82 67
76 66 86 92 96 94 100 100 100 100 100 100 100 100 100 96 88 90 71 74 67 60 58 52 60 67 69 65 72 92 85 82 60 65 67 49 64 91 90 100 84 68 61 63 52 54 65 67 65 80 100 100 92 87
64 73 59 77 97 86 87 99 100 100 100 98 87 77 77 63 56 47 63 76 73 63 62 55 48 56 88 87 95 100 82 76 74 66 68 86 100 99 100 90 82 74 74 70 61 56 58 61 75 85 96 100 100 100
84 97 88 82 99 100 89 86 95 94 89 93 84 72 63 64 84 76 70 63 56 52 44 51 76 98 100 100 97 100 95 83 84 92 84 85 91 95 90 81 72 66 67 64 57 56 68 76 93 100 100 100 100 100
94 100 100 100 100 100 100 91 75 71 82 78 80 76 80 77 75 89 90 80 81 72 85 94 89 100 99 90 95 84 79 83 100 83 67 56 52 58 58 58 68 74 72 72 75 94 100 100 100 98 100 100 100 100
100 100 100 100 100 100 100 100 100 100 100 97 100 100 100 100 100 100 100 100 100 100 98 100 100 100 100 100 100 99 98 99 97 91 96 85 72 64 66 71 76 83 92 91 100 100 98 100 100 100 100 100 100 100
100 100 100 99 98 96 100 100 94 86 83 84 82 91 93 92 94 92 95 93 96 100 100 100 100 100 99 95 89 95 90 95 91 88 91 94 96 92 98 100 100 100 100 99 95 100 100 100 100 100 100 100 100 99
96 100 100 100 100 100 100 100 98 90 89 85 83 76 72 69 71 75 81 86 94 94 94 92 87 90 94 100 99 95 95 100 100 100 100 100 100 100 100 100 100 100 100 100 100 100 100 98 90 72 52 36 26 25
73 80 93 100 100 100 100 100 100 90 85 79 79 81 82 82 83 84 86 83 84 87 97 99 99 98 96 100 99 100 100 100 100 100 100 100 100 100 100 100 100 97 82 58 41 30 26 26 27 29 30 31 30 29
64 72 84 97 100 100 100 100 100 100 92 90 88 83 80 82 82 87 88 89 95 100 100 100 100 100 100 100 100 100 100 100 100 100 100 65 29 21 21 22 26 29 32 35 36 36 36 36 35 33 32 29 25 21
48 51 63 88 100 100 100 100 100 100 97 79 77 82 92 98 100 100 100 100 100 100 100 100 100 100 97 86 58 27 21 21 21 23 26 30 34 36 38 40 40 41 41 41 40 37 34 32 28 23 16 10 8 7
40 45 75 100 100 100 100 89 82 76 88 86 86 90 98 95 89 77 58 39 27 25 18 16 14 14 15 18 23 28 32 33 35 37 39 41 42 43 43 43 42 41 40 38 36 34 30 20 12 9 8 8 8 8
48 65 86 93 100 100 100 85 77 63 52 49 65 84 84 60 32 19 16 14 12 11 14 21 32 38 41 42 42 43 44 45 46 46 46 46 45 45 44 44 43 42 40 38 30 19 12 10 9 9 10 10 10 10
57 72 76 84 90 74 68 70 74 60 40 30 25 14 13 12 10 10 10 14 21 35 43 47 50 51 52 52 52 52 51 50 50 50 50 49 48 48 47 47 46 40 29 18 12 11 11 12 13 14 13 12 14 18
57 70 72 66 66 68 65 54 61 56 27 16 10 9 10 20 35 43 45 49 55 59 60 60 59 58 58 58 56 55 56 56 55 54 53 53 53 55 51 37 22 14 12 11 12 15 19 20 18 17 20 23 25 26
56 61 74 78 72 68 69 48 25 16 12 10 10 22 40 47 53 60 66 66 66 68 66 65 66 64 64 64 64 64 60 58 58 58 57 57 47 28 17 13 12 12 14 18 24 26 24 19 19 20 20 21 23 26
57 71 85 77 66 59 39 17 10 10 10 14 26 34 44 57 62 66 71 72 72 72 72 74 73 74 74 75 70 66 64 61 60 54 38 22 15 13 13 13 16 22 26 27 25 25 22 21 22 24 28 29 26 22
63 65 62 57 42 18 10 10 10 13 16 22 29 38 45 51 54 60 74 79 78 78 81 82 82 86 86 79 72 68 60 49 31 18 14 13 14 15 18 24 28 29 27 23 22 24 23 23 26 28 28 27 25 24
39 27 17 10 11 12 17 20 19 22 27 32 35 41 51 49 54 63 80 83 86 90 90 92 96 93 82 74 66 51 31 18 14 13 14 16 19 23 27 31 32 29 25 25 26 27 26 25 26 28 29 29 28 27
14 18 25 28 30 32 29 30 29 29 30 30 40 46 47 53 58 73 89 91 93 96 98 96 92 81 75 62 40 22 15 14 13 15 17 19 20 24 30 33 31 28 27 27 27 26 26 25 24 24 24 24 24 25
45 43 46 46 49 47 42 37 35 38 35 32 32 37 46 60 72 94 94 95 97 98 96 90 79 73 53 29 17 14 14 14 16 16 17 20 26 30 30 28 27 26 25 25 24 25 26 26 27 28 28 30 32 35
55 48 47 44 40 38 44 48 43 38 38 37 46 63 81 92 99 97 99 98 98 97 86 77 65 40 21 16 14 14 16 18 17 18 22 24 25 23 22 21 21 22 26 30 35 39 43 47 50 52 53 54 54 54

GFSWCAN_500_rhum_060.txt.gz
RH
14 25 74 87 87 84 88 96 99 100 100 100 74 38 65 86 100 100 96 99 100 98 100 71 92 67 77 92 95 89 94 89 70 60 66 68 66 96 100 100 100 98 92 43 70 100 99 98 100 100 76 61 44 31
31 79 89 88 89 97 100 100 100 100 100 100 97 34 64 97 100 88 86 96 100 91 84 39 45 51 34 49 100 100 83 99 92 94 94 87 80 100 98 97 100 100 91 80 40 30 43 44 55 49 36 29 42 64
78 86 84 86 96 100 100 100 100 100 100 100 76 30 59 100 91 74 80 97 97 57 62 38 46 48 30 62 74 46 77 100 99 100 100 89 99 95 93 83 99 98 81 76 66 41 45 95 68 41 65 50 75 99
83 92 98 97 92 83 89 98 100 100 100 75 22 40 88 95 71 66 66 67 57 51 64 65 42 30 31 33 32 71 97 99 100 100 98 100 100 99 100 91 84 100 100 80 90 100 68 63 100 52 55 67 66 63
95 97 83 69 64 67 68 60 78 100 100 22 31 67 67 63 61 60 56 56 71 74 51 35 22 22 24 36 62 93 100 100 100 100 86 96 99 100 99 95 100 100 100 100 100 100 100 100 100 81 54 52 55 48
88 62 77 75 74 66 45 45 62 100 100 30 34 57 52 54 59 51 52 68 61 37 30 26 47 69 82 100 99 98 100 100 100 100 96 97 96 100 100 100 98 97 82 96 100 100 97 81 69 66 71 59 45 40
67 82 80 72 88 88 62 51 68 100 100 83 28 44 56 61 56 46 52 62 48 100 99 100 100 99 100 100 100 100 100 100 100 100 98 100 99 100 100 100 99 100 100 92 87 91 78 60 52 66 60 55 44 40
92 95 99 97 73 64 76 54 78 100 100 98 39 27 34 62 43 36 66 33 48 100 100 100 100 100 100 100 100 100 100 100 100 100 98 100 100 100 97 92 95 100 91 94 90 78 71 71 59 52 54 52 47 48
68 98 82 44 55 59 82 62 78 100 100 100 93 53 52 40 27 36 78 69 61 100 100 100 92 100 100 100 100 100 100 100 99 96 100 99 100 94 96 100 100 100 100 100 94 72 77 75 69 62 54 42 34 30
100 99 84 60 92 60 78 66 82 100 100 100 100 100 100 100 98 89 67 80 100 99 100 100 100 100 100 100 100 100 100 100 100 100 100 99 96 100 100 100 100 100 100 91 74 72 58 48 45 42 37 34 32 26
74 84 69 73 74 99 80 82 100 100 100 100 100 100 100 100 100 100 100 96 89 93 98 99 100 100 99 100 100 100 100 100 100 100 100 99 88 100 100 100 100 96 89 78 64 57 54 48 47 44 45 40 32 37
100 89 100 91 100 88 86 100 100 100 100 97 99 100 100 100 100 100 99 100 100 100 100 100 100 100 100 100 100 100 100 100 100 100 99 86 92 100 100 100 100 98 91 78 72 67 65 67 68 65 72 67 63 58
94 96 100 100 98 96 100 100 100 100 100 100 100 100 100 95 100 100 90 100 98 100 100 100 100 100 92 87 94 98 92 79 66 60 43 49 61 82 100 96 94 100 98 91 85 75 66 65 58 54 61 63 64 58
100 100 96 100 100 100 100 100 100 100 100 100 98 86 90 86 91 97 89 93 93 80 77 70 69 67 72 77 75 65 62 65 53 46 60 74 71 73 87 91 91 96 100 97 76 83 88 79 67 52 51 53 58 72
92 89 98 94 99 100 100 100 100 100 100 100 93 79 69 67 70 67 78 81 75 64 56 49 48 53 61 66 75 56 60 60 63 79 100 85 84 80 72 77 71 87 97 86 82 68 62 57 52 55 65 78 90 93
98 85 84 72 79 84 85 96 97 92 99 100 100 84 62 68 63 61 67 56 56 57 54 47 46 67 92 80 85 80 80 84 91 92 92 88 82 74 86 91 84 74 74 72 60 67 71 73 77 92 100 100 100 100
100 100 98 99 94 69 71 79 91 79 66 65 67 73 66 59 54 50 60 56 50 42 46 70 74 86 98 78 83 93 100 100 88 85 74 68 82 91 75 60 53 51 61 74 87 98 100 100 100 100 100 100 100 100
100 100 100 100 100 100 100 100 100 100 99 89 87 86 88 98 100 100 100 97 84 88 87 100 100 100 98 97 94 95 94 96 100 99 90 86 90 93 92 95 100 100 100 100 100 100 100 100 100 100 100 100 100 98
100 100 100 100 96 98 100 92 93 91 91 97 98 97 94 90 81 83 86 86 92 96 94 95 100 100 100 98 93 92 95 100 97 95 96 95 99 100 100 100 100 100 100 100 100 100 100 97 84 64 44 33 30 31
100 100 100 100 100 100 100 93 77 68 64 70 76 78 74 72 68 67 71 79 88 93 92 93 90 86 88 92 92 93 91 97 100 100 100 100 100 100 100 100 100 92 75 51 36 27 28 32 36 38 39 39 38 37
90 100 100 100 100 100 100 94 81 78 70 69 70 72 75 73 77 81 84 86 85 90 96 99 98 95 94 100 100 100 100 100 100 100 100 100 87 39 24 24 30 36 40 42 43 43 44 43 42 41 38 36 33 29
93 100 100 100 100 100 100 98 90 78 72 71 74 77 79 77 78 82 82 86 92 98 100 100 100 100 100 100 100 85 44 26 21 22 25 30 35 39 43 45 45 46 46 45 44 43 41 39 38 36 32 23 13 9
87 99 100 100 100 98 100 100 94 70 64 72 75 80 84 91 99 100 100 100 100 100 100 95 78 49 30 20 21 27 32 35 39 42 44 45 46 46 46 46 46 46 46 44 42 42 43 39 26 15 10 9 9 9
97 100 100 99 80 57 51 47 69 96 96 94 98 100 100 100 96 64 37 21 15 13 14 19 29 37 41 42 44 47 48 48 48 48 48 47 47 48 49 49 48 47 48 50 48 35 18 12 11 10 10 11 13 15
88 100 100 100 92 80 58 46 34 45 60 62 65 41 26 18 14 12 11 13 22 39 46 48 50 52 54 53 53 52 52 53 52 54 54 54 53 53 51 52 55 52 36 20 13 12 12 11 12 15 20 22 19 18
82 92 92 76 75 76 71 52 31 23 17 11 10 9 10 18 35 45 49 53 55 57 58 59 59 59 58 58 58 61 63 66 66 63 60 56 54 54 44 29 19 14 13 12 12 13 16 20 24 25 24 20 18 20
77 72 70 68 65 59 56 57 38 18 11 9 10 22 38 48 55 58 62 65 64 66 65 65 65 66 66 68 72 78 82 78 69 64 56 46 31 19 14 13 13 13 14 16 20 24 26 27 24 23 23 21 22 24
69 68 73 75 75 66 46 25 13 9 9 12 25 31 46 54 57 62 64 67 69 69 70 71 74 76 79 81 88 88 77 70 60 47 30 17 14 13 13 14 15 17 20 24 29 31 29 25 24 25 24 24 26 29
62 74 82 77 73 54 20 11 10 12 16 24 32 46 50 61 61 61 62 65 73 76 74 77 82 87 88 89 85 75 68 55 35 20 14 14 13 14 14 14 15 18 23 30 31 28 27 27 28 28 27 26 27 29
70 79 90 81 49 16 10 16 18 21 27 35 35 39 48 48 50 57 62 69 81 82 82 85 91 92 90 82 72 63 43 24 16 14 13 14 14 14 15 17 22 26 27 27 26 26 26 26 27 27 27 27 27 26
65 61 45 17 12 18 28 30 30 31 32 32 37 36 36 43 49 62 73 88 91 91 88 90 91 89 78 69 55 34 20 16 14 14 15 15 15 16 19 21 22 22 21 20 20 21 22 24 26 28 30 32 35 36
20 14 17 25 36 40 42 42 40 43 42 40 39 41 43 51 67 82 93 97 96 91 92 93 88 76 65 46 25 17 16 14 15 16 17 17 18 18 17 16 17 21 26 30 33 36 41 45 49 52 54 56 57 57
37 43 43 42 41 38 37 41 40 40 42 42 48 54 66 76 90 96 100 97 93 95 93 84 73 58 36 21 18 16 15 16 18 18 18 20 20 18 18 20 24 28 36 45 53 58 62 62 61 59 55 49 44 41

GFSWCAN_500_rhum_063.txt.gz
RH
38 31 12 9 31 72 78 85 80 82 98 79 95 100 100 97 41 67 89 100 100 71 100 97 100 100 100 95 88 100 100 96 76 74 61 50 31 60 62 99 100 100 92 75 35 10 73 100 98 100 95 95 100 100
36 15 9 18 65 70 72 77 86 96 100 100 100 100 100 100 100 71 100 100 100 63 100 73 82 80 96 100 88 99 100 100 94 78 36 46 61 90 99 100 100 100 98 84 76 67 27 65 93 98 100 95 98 100
18 9 14 60 71 68 72 83 92 96 100 100 100 100 100 100 100 92 100 99 83 72 100 79 92 100 87 100 100 98 100 87 88 90 72 91 99 100 100 100 100 97 95 90 84 86 61 75 93 91 88 87 95 94
10 13 65 77 76 72 69 73 84 99 100 100 100 100 100 100 84 100 84 76 76 75 87 86 83 65 72 58 68 100 98 88 100 100 85 84 100 100 100 100 94 98 98 96 98 100 97 85 85 100 74 73 74 42
13 68 87 83 74 62 51 60 73 71 90 100 100 69 33 59 97 74 71 67 93 90 72 65 47 47 40 38 60 74 70 99 100 99 100 100 96 100 100 100 89 90 100 100 95 100 100 100 100 89 98 100 88 50
82 98 84 64 62 52 56 54 42 52 87 100 43 44 67 65 52 49 45 56 67 88 62 51 47 41 34 24 22 58 89 91 100 92 100 100 93 100 99 100 95 97 100 100 100 100 100 100 100 100 100 100 69 56
100 87 67 65 64 50 64 56 51 48 98 96 34 39 34 32 36 43 57 73 84 60 46 32 28 30 39 35 37 54 86 96 97 100 100 100 94 96 88 74 93 100 100 100 100 98 100 99 99 100 99 95 80 72
74 66 72 79 77 71 66 53 55 56 100 96 40 41 32 33 46 67 95 76 47 49 75 100 100 100 100 100 100 98 98 99 98 97 100 100 96 89 76 82 99 90 100 100 86 85 79 82 88 84 72 70 70 66
71 98 92 78 65 36 62 67 65 97 100 90 38 51 55 65 70 69 64 63 74 83 100 100 98 100 100 100 100 100 100 100 99 100 100 100 100 93 88 90 91 85 90 92 89 88 83 71 66 73 68 65 65 65
100 100 100 96 52 74 62 93 84 100 100 52 34 38 48 62 63 56 32 93 94 100 100 95 83 97 100 100 100 100 100 100 100 100 100 100 100 100 100 100 100 99 99 94 97 97 90 84 89 84 76 70 62 46
74 74 69 69 77 80 78 70 99 100 100 34 28 27 32 43 57 57 30 58 67 99 100 100 91 95 100 100 100 100 100 99 100 100 100 99 100 100 100 100 98 98 96 100 97 98 99 97 87 71 55 48 44 44
82 84 65 53 77 66 70 71 100 99 99 91 83 96 100 98 98 76 64 68 88 100 100 100 100 97 92 100 99 99 100 100 100 100 100 98 100 100 100 98 97 98 99 100 98 96 85 71 66 64 58 57 59 63
92 95 96 96 97 84 97 100 100 100 100 100 100 100 100 100 100 100 90 80 87 99 100 100 100 98 99 100 100 100 100 100 100 100 97 88 76 80 84 91 100 100 100 94 95 98 97 94 83 75 66 58 55 51
95 99 93 94 100 100 100 100 100 100 100 100 100 100 100 100 100 100 100 100 100 100 100 100 100 99 100 100 99 100 90 77 72 52 92 99 88 82 71 70 92 99 99 88 71 80 100 92 78 69 66 63 58 56
100 100 98 100 100 100 100 100 100 100 100 96 99 99 96 99 98 100 100 96 96 92 86 81 77 74 70 72 79 77 72 56 68 81 84 86 88 73 73 78 77 69 68 71 65 70 93 92 74 60 56 58 60 57
84 98 96 98 99 100 100 99 100 100 97 90 92 89 92 91 82 87 82 77 75 65 60 60 50 48 50 55 57 54 50 58 98 76 77 81 78 72 66 71 75 82 92 92 82 69 68 70 60 60 74 89 92 97
82 79 85 91 92 94 90 96 100 96 83 88 86 83 100 97 90 76 65 50 47 55 56 53 47 56 78 63 59 65 75 83 69 71 67 64 57 57 68 78 82 80 80 73 64 64 70 81 97 98 100 100 100 100
98 91 65 59 62 72 75 77 74 87 98 100 99 77 56 52 46 43 52 49 45 43 45 54 54 74 84 85 78 72 74 77 82 75 77 87 88 93 93 96 99 100 100 100 100 100 100 100 100 100 100 100 96 78
100 100 100 100 98 94 94 99 97 88 71 59 60 58 66 76 85 85 85 75 70 68 74 70 76 79 84 84 88 93 96 94 93 99 100 100 100 100 100 100 100 100 100 100 99 96 89 76 56 38 30 31 35 38
100 100 100 100 98 100 100 100 100 98 97 92 89 90 91 93 94 94 88 85 86 91 90 89 98 95 99 100 98 99 100 100 100 100 100 100 100 100 100 100 73 41 31 29 29 31 35 38 42 45 47 47 46 42
100 100 100 97 94 99 100 93 79 82 89 92 84 76 72 73 69 70 76 86 99 100 100 100 100 91 89 92 95 98 100 100 100 100 100 93 57 30 26 31 36 41 44 46 48 50 52 51 50 47 45 43 39 37
100 100 100 100 100 97 94 76 65 55 57 62 63 61 62 62 65 76 86 88 88 92 97 98 100 100 100 100 100 100 88 37 21 28 38 36 38 42 46 49 51 51 50 50 52 51 49 47 46 46 44 42 32 17
100 100 100 100 100 100 91 71 59 53 52 57 61 64 69 74 79 84 88 92 96 100 100 100 100 100 89 54 23 24 35 42 45 48 50 52 53 53 52 52 51 51 50 48 48 49 50 50 45 30 16 12 12 11
100 100 83 76 99 100 95 65 55 56 61 63 68 74 81 92 99 98 96 95 88 67 39 22 19 32 42 48 51 52 53 53 54 55 55 55 57 58 58 56 55 52 53 53 46 33 20 15 13 13 12 12 13 15
100 93 50 38 50 79 99 93 84 79 81 88 96 99 95 88 47 22 14 12 17 42 49 52 54 55 56 56 56 55 56 56 58 60 65 70 70 65 60 58 52 37 23 16 14 14 13 14 14 15 17 20 24 25
100 95 78 53 36 33 34 28 27 42 46 40 26 18 13 16 29 42 50 53 55 56 57 58 58 58 59 59 60 61 64 69 77 85 79 70 63 59 45 28 18 14 14 13 13 14 14 15 19 23 28 29 26 25
100 95 84 72 61 41 30 22 13 9 9 10 15 27 42 49 54 57 61 61 62 65 66 66 66 66 69 71 75 77 86 89 86 76 66 61 46 25 16 14 13 13 13 13 13 14 17 23 28 30 28 27 28 28
76 68 69 63 52 46 41 23 12 9 10 17 27 40 52 59 63 63 63 64 66 71 72 72 72 72 73 76 82 86 85 78 68 62 51 28 17 15 14 14 14 13 13 16 19 23 25 25 25 26 26 27 27 28
65 71 75 72 65 40 15 11 10 12 17 27 35 46 50 53 48 51 54 63 72 77 80 80 78 76 79 84 87 84 73 66 54 32 19 16 15 14 15 15 15 16 18 19 20 20 21 21 21 22 23 24 25 26
69 75 90 92 74 38 13 12 14 18 24 31 33 31 34 35 39 49 57 68 76 85 89 87 82 83 86 90 84 72 59 37 21 17 16 15 15 16 17 17 18 17 16 17 18 22 25 28 31 34 38 43 47 50
62 82 82 83 47 14 12 23 32 35 32 29 29 32 36 47 50 56 66 76 85 93 94 90 87 90 92 82 67 44 24 19 18 16 15 16 18 18 19 19 19 18 19 21 24 31 39 48 55 58 59 59 57 53
68 70 50 20 14 18 32 44 40 37 35 34 36 40 44 54 59 67 74 88 96 98 95 94 95 89 80 60 32 20 20 18 15 16 19 20 23 22 22 23 23 26 32 42 51 55 57 58 56 47 37 37 40 43
44 23 22 30 38 38 36 38 38 35 35 33 38 48 60 62 70 86 94 99 100 97 96 94 88 78 55 28 21 21 19 16 17 20 23 28 31 32 32 34 40 49 54 57 58 56 46 35 33 38 46 46 46 47

GFSWCAN_500_rhum_066.txt.gz
RH
12 13 14 19 31 34 20 10 54 65 71 77 90 94 77 83 87 86 41 46 55 54 92 98 68 43 58 69 100 100 100 99 90 82 73 100 78 65 46 34 39 53 38 27 25 4 3 39 100 100 100 100 100 94
12 14 16 34 36 29 10 37 66 64 74 85 90 98 100 93 100 94 95 74 91 74 79 88 71 86 100 100 100 95 100 96 100 73 59 66 62 58 46 55 99 100 99 78 74 68 23 16 97 98 99 100 100 100
15 16 37 39 35 12 18 68 70 74 86 93 95 100 100 100 100 100 100 96 86 73 89 95 100 100 90 100 97 93 100 100 100 89 57 54 47 65 87 100 100 100 100 100 98 78 50 86 74 96 100 100 100 100
20 43 44 41 18 14 66 77 75 69 77 97 100 100 100 100 100 100 100 99 98 86 88 100 94 87 100 98 77 82 100 100 98 94 87 55 97 97 100 100 100 100 97 100 91 90 79 80 79 95 89 99 100 100
53 49 47 24 12 62 84 81 65 63 72 74 94 100 100 100 100 100 100 98 81 85 80 78 64 70 100 78 55 78 100 100 100 90 82 92 100 100 94 100 97 100 99 100 88 83 100 100 87 94 100 100 100 100
56 54 26 13 67 87 72 57 51 44 40 51 92 100 100 70 64 86 86 51 57 70 76 72 57 60 54 65 65 86 100 99 99 100 100 100 100 100 100 100 99 100 100 100 98 100 100 100 100 86 85 100 100 100
62 22 18 79 94 68 61 44 45 50 52 50 98 50 48 51 64 50 51 72 71 63 55 49 44 39 39 42 50 60 67 81 99 100 100 100 100 100 100 100 99 100 100 100 100 100 100 100 100 100 100 99 95 100
18 52 99 96 71 61 50 51 67 62 49 69 84 38 18 22 29 41 53 58 70 64 53 42 53 44 32 25 23 26 50 76 94 100 100 98 91 100 100 100 100 100 98 100 94 94 85 80 95 98 97 98 100 98
97 100 86 64 58 66 82 78 58 54 52 97 60 18 18 26 35 41 57 57 48 73 100 100 100 100 100 100 98 87 81 82 82 97 100 83 88 94 100 100 100 100 95 95 99 96 97 90 80 78 77 77 80 86
92 93 99 96 78 74 64 38 37 54 94 100 50 26 35 41 53 54 47 50 99 100 100 100 98 100 100 100 100 100 99 100 96 84 83 82 80 94 99 98 100 100 95 91 86 81 99 100 93 86 83 75 75 74
99 97 84 83 79 76 50 46 63 97 100 78 54 49 42 58 63 52 36 91 94 100 100 100 100 90 74 100 100 100 98 95 96 96 99 86 90 98 97 94 88 81 85 86 76 69 75 84 92 89 91 94 96 92
92 78 80 68 90 70 55 65 99 100 100 52 55 60 51 50 44 40 38 95 95 96 100 100 100 92 84 86 99 100 100 100 100 100 100 99 100 100 98 91 88 90 96 91 85 80 75 75 84 88 86 87 87 78
81 89 81 87 98 68 73 100 100 98 74 67 69 56 49 55 50 36 37 84 99 100 100 100 98 95 88 83 82 91 99 92 98 95 94 100 100 99 97 99 100 100 100 100 100 100 100 100 100 100 97 95 92 85
78 90 64 80 91 82 98 100 98 94 91 80 80 66 83 75 80 68 56 70 91 100 100 98 95 92 90 83 79 91 96 100 98 100 100 90 76 77 72 60 51 48 45 50 72 87 85 76 57 57 74 90 92 77
99 93 94 96 97 100 100 94 100 100 100 92 95 90 96 92 96 98 91 88 95 96 100 100 100 99 96 96 100 100 100 93 86 98 100 92 86 83 80 73 65 56 61 67 70 70 66 60 62 80 99 99 95 81
100 100 100 100 100 100 100 100 100 100 100 100 98 100 100 100 100 100 97 92 92 99 100 94 88 82 69 60 60 62 62 61 86 81 77 72 77 73 70 67 66 69 70 71 76 81 83 84 85 77 73 74 77 92
100 90 100 100 100 100 100 100 100 96 93 100 100 100 100 92 91 86 73 65 58 52 52 54 52 44 48 51 53 71 94 70 68 66 72 68 61 64 64 71 82 83 88 96 100 100 100 100 100 100 100 100 100 100
98 99 99 100 100 100 100 93 96 87 89 95 90 97 78 72 70 56 51 43 44 52 52 50 45 72 95 95 80 88 78 81 75 64 60 61 66 82 90 95 99 100 100 100 100 100 100 100 100 100 100 100 97 84
77 75 86 87 91 88 82 79 84 78 82 80 83 84 62 56 54 51 57 50 46 45 48 54 63 69 71 70 69 71 79 78 72 70 80 93 100 100 100 100 100 100 100 99 88 64 51 44 39 36 34 38 43 48
98 89 89 83 75 83 92 93 79 69 65 66 67 62 63 76 88 87 68 61 61 67 69 70 73 73 70 70 73 83 89 94 94 93 97 98 96 95 94 91 80 50 32 30 36 43 48 52 54 53 53 53 52 52
100 100 100 100 99 96 100 100 100 100 88 91 78 83 94 98 89 82 80 80 84 90 87 82 83 88 93 92 92 90 89 88 87 67 32 28 32 29 30 36 43 47 50 53 54 55 56 56 56 55 52 51 50 49
100 100 100 100 98 75 85 84 85 85 89 92 92 87 78 67 61 64 77 88 93 92 91 95 96 97 96 96 95 95 81 36 23 28 36 40 42 45 49 53 58 60 62 64 63 60 57 56 54 53 50 44 35 25
100 100 98 94 90 73 71 57 56 59 63 63 59 58 58 60 68 80 79 80 82 88 94 98 99 96 76 46 27 29 39 47 50 51 54 56 58 62 66 70 72 71 68 63 60 58 53 43 32 21 15 14 14 13
100 100 100 100 93 78 53 41 36 39 45 54 61 66 68 73 81 88 95 99 97 89 60 29 19 31 44 51 53 55 56 56 57 58 61 66 71 74 75 73 68 65 65 60 41 24 16 14 14 13 12 12 12 13
91 99 100 100 100 65 44 43 45 51 58 58 65 75 83 93 90 72 33 13 13 36 50 53 53 53 53 53 54 54 56 58 60 63 68 73 79 76 72 71 67 48 27 18 15 14 13 12 12 12 13 14 17 22
89 92 76 87 99 83 60 57 59 66 77 85 89 80 51 20 16 27 47 54 56 55 53 56 58 59 59 61 63 65 67 70 78 83 82 78 73 73 64 41 23 17 16 15 14 14 13 14 15 17 21 24 24 24
54 37 28 24 24 41 63 67 67 53 34 23 14 22 40 50 55 57 59 58 60 64 65 66 66 66 68 69 72 76 78 79 82 79 73 70 55 31 20 18 16 16 15 15 14 15 17 18 19 20 20 21 22 23
69 58 42 31 23 14 11 9 9 11 18 30 38 45 54 56 60 62 62 67 71 73 75 76 76 76 76 74 76 77 80 84 79 73 55 29 20 19 17 16 16 16 17 16 17 16 16 17 19 21 23 25 28 32
68 65 59 49 36 16 10 10 12 17 32 36 44 55 54 55 53 58 58 59 66 69 79 83 84 86 83 83 84 83 82 78 63 37 21 20 20 17 16 17 18 19 19 19 18 18 20 22 26 31 38 46 53 57
74 82 80 68 44 22 11 14 22 26 39 43 46 41 40 39 45 53 53 59 68 76 81 88 92 89 86 88 87 83 77 57 31 22 22 20 17 18 20 23 24 23 23 24 24 27 36 45 51 54 56 54 45 36
72 76 84 81 55 19 12 23 33 37 38 38 40 36 34 38 43 55 60 66 74 82 90 95 94 92 90 90 87 80 57 32 24 24 21 17 18 20 24 29 33 34 33 36 44 52 55 56 57 50 36 32 36 44
57 66 75 78 33 14 16 24 40 45 45 42 38 36 35 39 59 70 63 74 86 96 99 98 96 94 94 93 83 60 34 26 26 23 18 19 22 26 32 36 42 48 52 57 58 59 58 47 34 30 33 43 45 45
60 65 50 27 17 23 24 32 38 46 47 39 37 48 61 66 63 74 81 91 99 100 99 97 95 94 95 85 64 37 29 28 25 19 20 23 27 33 39 44 50 56 60 61 57 42 33 31 31 36 44 45 44 40

GFSWCAN_500_rhum_069.txt.gz
RH
12 13 15 15 14 11 10 12 22 31 24 30 59 61 66 77 86 78 67 59 27 28 51 82 95 88 92 71 77 100 91 43 100 98 100 100 81 56 49 71 33 18 12 10 6 4 4 7 6 21 89 77 99 78
15 13 13 14 14 12 12 19 31 37 14 59 64 74 81 87 84 77 70 75 68 52 68 73 93 98 97 77 56 100 100 99 100 90 97 100 100 100 94 66 36 34 75 55 55 12 8 9 6 8 78 100 92 81
18 16 14 14 13 12 15 33 40 20 41 70 82 90 97 95 96 85 93 80 81 70 83 85 96 93 76 53 57 81 100 100 94 45 64 74 78 96 74 45 45 100 100 100 90 46 37 30 11 6 95 100 99 71
20 19 16 14 14 15 34 44 37 21 71 78 84 99 100 100 100 100 100 100 100 89 78 96 89 66 43 34 35 98 98 100 97 78 66 48 62 59 45 72 86 95 95 98 80 64 68 60 48 30 71 100 100 93
55 19 17 15 15 35 49 49 18 60 79 71 76 89 100 100 100 100 100 98 100 100 95 88 78 99 99 100 88 100 100 100 100 100 65 39 34 41 94 100 100 100 74 93 85 71 81 78 70 74 100 100 100 100
59 23 17 16 39 53 58 20 55 80 66 46 47 68 100 100 100 100 100 100 100 96 94 82 76 80 92 100 97 100 100 99 100 100 84 59 99 100 100 100 94 89 88 93 100 98 100 90 100 98 86 99 100 100
42 26 23 47 60 61 22 57 83 61 52 53 50 59 100 93 100 100 100 100 69 79 89 82 70 66 81 96 100 92 77 99 99 81 84 99 100 100 100 100 100 95 98 100 97 100 100 99 100 94 100 86 100 100
42 31 50 69 62 23 65 85 60 51 55 57 57 87 61 36 40 60 58 42 47 61 62 46 44 58 54 53 58 47 63 85 91 95 100 98 96 97 100 100 100 100 100 100 100 100 97 99 99 100 100 96 95 98
39 63 79 44 25 84 93 69 61 52 57 49 66 84 33 25 32 36 36 41 50 55 54 48 44 39 33 40 39 40 60 73 68 92 100 92 89 87 91 88 86 98 100 98 94 89 92 90 75 76 93 98 100 99
98 63 27 64 100 96 59 62 75 66 52 73 100 51 23 26 24 26 41 53 60 96 100 100 100 100 98 99 95 65 36 50 87 96 85 70 77 70 70 88 90 86 94 100 100 92 81 70 73 70 70 75 79 82
70 94 100 100 83 80 76 76 52 50 69 100 69 32 23 27 32 44 46 87 97 100 100 100 100 95 92 100 100 100 100 99 92 85 84 78 89 80 64 59 67 78 74 76 84 81 77 81 82 83 81 81 76 75
100 100 100 100 93 71 70 60 64 88 100 95 49 28 29 46 49 38 82 97 100 100 100 100 100 100 100 100 99 100 100 100 100 100 97 89 85 74 73 72 73 76 87 94 86 80 81 79 80 85 86 91 98 100
99 100 100 88 83 92 79 85 96 95 94 69 60 57 56 47 37 44 74 95 100 100 99 100 100 98 94 88 95 98 100 100 100 100 100 98 91 90 90 92 93 87 81 79 80 87 93 94 92 93 98 100 98 96
89 86 96 91 100 89 84 88 99 82 61 64 65 58 57 46 34 64 91 100 100 100 100 100 100 100 100 100 100 93 93 95 100 100 100 92 84 76 62 53 46 43 40 37 36 36 39 42 51 58 57 60 60 53
100 100 100 100 97 91 95 100 88 87 76 66 65 56 62 59 33 62 91 92 95 96 100 100 99 99 100 100 100 90 96 92 99 99 92 95 78 73 59 58 54 55 54 51 49 52 54 57 63 69 69 67 68 69
89 100 100 93 94 100 100 67 61 88 83 97 98 99 100 100 80 44 61 87 79 80 86 95 95 100 100 96 85 86 86 93 100 87 85 84 69 60 65 64 64 59 54 56 66 72 71 78 80 80 82 84 86 87
83 78 99 100 100 97 99 100 100 100 100 100 100 100 100 100 100 97 78 78 91 98 100 100 100 87 60 50 46 50 53 51 53 59 73 74 66 60 58 61 77 90 94 95 92 92 95 99 100 100 100 100 100 100
99 98 100 100 100 100 100 100 99 100 100 100 100 100 100 93 91 81 76 68 64 60 59 58 55 50 47 52 51 65 74 73 78 75 67 63 62 67 73 80 89 94 97 100 100 100 100 100 100 100 100 100 98 94
94 85 93 99 100 100 96 99 96 100 100 89 93 94 86 80 69 57 47 40 36 40 38 38 41 64 76 68 69 70 65 71 80 80 76 72 74 86 96 100 100 100 100 100 100 99 86 62 42 39 43 50 55 59
86 78 77 88 80 84 78 79 87 90 92 97 93 85 64 60 54 47 42 37 40 42 46 53 60 60 59 66 67 68 68 68 74 84 91 97 96 83 76 86 85 62 47 37 42 49 55 61 67 72 75 76 77 76
94 94 85 77 81 84 83 77 75 74 70 63 55 57 65 66 60 52 56 61 65 67 62 60 62 65 68 72 71 77 83 87 88 74 44 30 25 27 34 42 49 54 58 63 68 72 77 79 80 78 71 64 53 40
94 91 95 99 99 94 95 87 81 71 61 63 68 74 76 80 82 80 78 80 81 78 79 82 82 79 80 83 86 80 61 38 30 34 41 47 52 56 61 66 71 76 84 89 90 85 78 72 63 50 36 24 17 15
100 100 100 99 97 78 73 70 70 69 69 70 67 60 59 60 61 72 79 83 83 85 86 87 87 86 60 32 33 42 48 53 54 56 58 60 63 69 76 84 88 88 84 77 71 64 50 33 20 17 16 15 13 12
100 100 99 98 89 72 57 59 62 62 55 50 52 56 61 74 85 85 80 83 89 88 65 34 29 39 47 51 52 52 53 54 54 55 59 62 65 71 76 75 75 75 69 49 28 19 17 16 15 14 13 12 12 13
100 100 100 96 74 53 38 32 34 41 46 53 62 72 76 80 86 93 90 44 18 25 47 50 51 52 52 52 53 54 56 59 61 64 68 71 75 77 75 76 62 33 20 19 18 16 15 14 14 14 15 15 16 18
100 100 100 98 53 37 28 31 37 43 54 60 67 76 90 94 60 19 24 50 54 54 54 54 56 57 57 61 65 68 68 70 71 73 73 74 75 76 60 31 21 20 19 17 16 16 16 16 16 17 16 17 17 18
87 100 98 60 41 38 40 46 52 60 70 79 92 70 32 24 43 53 54 54 56 58 61 63 67 70 73 76 75 76 78 77 77 76 76 77 68 40 24 22 22 20 17 16 18 19 19 19 18 17 18 21 23 27
24 38 75 86 79 76 78 80 79 74 49 20 22 40 52 55 58 58 59 62 69 70 71 72 74 76 79 84 88 88 85 80 80 81 80 62 35 25 25 24 20 17 18 21 25 24 23 23 23 25 31 40 49 53
25 19 14 12 12 11 10 10 11 17 30 39 46 55 55 56 56 64 68 65 66 65 72 76 78 81 87 94 93 91 87 86 86 84 64 36 28 28 26 20 18 20 24 29 33 34 32 35 42 50 54 54 53 48
57 48 39 23 12 10 11 16 23 34 45 50 53 54 56 60 58 58 58 58 64 68 67 73 85 90 100 100 98 93 90 90 87 67 37 30 31 27 20 19 22 28 33 38 43 49 54 56 56 56 54 46 33 30
80 74 55 36 23 14 16 26 34 41 46 50 52 51 50 46 45 48 50 67 68 64 70 85 98 100 100 98 94 91 89 87 66 37 33 33 27 20 20 24 29 35 41 47 54 59 61 61 56 42 34 31 30 37
72 76 76 72 40 18 20 25 29 36 42 47 47 55 62 62 54 65 68 62 66 76 85 98 99 100 99 98 96 93 90 62 35 34 35 28 20 20 22 27 33 40 51 60 62 62 57 42 34 33 32 33 38 41
58 60 64 68 64 32 16 24 26 32 44 53 56 56 52 48 59 71 69 68 80 90 98 100 98 96 95 94 92 89 56 37 36 37 28 20 19 20 23 28 36 49 59 63 62 48 38 36 35 34 35 40 40 37

GFSWCAN_500_rhum_075.txt.gz
RH
26 40 34 21 30 22 14 12 11 12 14 15 17 16 12 11 28 26 52 66 58 49 48 41 33 27 27 28 63 64 77 88 95 100 100 100 99 65 75 62 88 85 85 72 50 31 37 52 72 53 19 12 10 15
21 16 29 44 25 25 20 14 13 14 15 17 18 15 12 16 34 45 68 76 67 57 49 49 44 44 50 39 72 76 81 100 87 86 99 100 100 100 98 96 55 43 57 48 34 51 51 43 53 34 10 7 8 17
12 14 13 18 46 29 21 17 15 16 17 19 18 15 14 33 32 78 93 87 87 64 62 55 41 41 51 57 75 95 84 95 100 92 100 100 100 100 100 100 84 67 65 46 92 100 60 37 24 17 7 6 6 17
12 12 12 12 19 49 25 18 16 16 18 19 18 15 22 40 43 80 100 98 90 80 56 87 68 44 38 52 72 99 91 92 100 89 82 86 77 88 100 98 86 100 100 100 100 100 100 95 59 31 10 7 8 10
16 15 13 12 21 38 46 20 18 18 19 19 17 17 44 40 80 84 96 92 83 100 95 96 98 73 44 48 68 96 96 97 100 99 90 66 60 50 94 92 94 78 96 100 100 100 100 100 96 75 44 30 19 10
26 21 17 15 24 74 52 26 20 19 19 19 18 41 40 77 79 80 74 100 90 100 100 100 100 73 62 49 65 92 93 100 100 100 100 93 51 53 84 67 69 90 100 91 100 99 97 88 97 88 78 77 66 52
24 25 24 18 18 61 46 26 21 20 20 20 36 44 64 79 65 82 94 100 94 100 100 100 100 97 84 88 82 82 87 93 100 99 100 100 65 56 51 100 43 98 100 100 100 100 96 83 88 86 96 84 86 87
26 24 23 22 20 71 52 29 22 22 22 42 47 66 78 68 75 81 95 100 100 100 98 99 84 78 86 66 57 56 80 98 99 100 100 100 88 88 98 100 89 100 100 100 100 100 100 100 100 100 94 93 93 84
20 23 21 20 24 70 47 30 26 27 50 49 79 74 76 89 75 98 100 92 98 100 94 71 73 90 100 89 39 48 71 96 100 100 97 93 93 100 100 100 100 100 96 100 100 100 97 94 89 98 89 82 80 86
16 19 19 18 48 63 40 31 46 54 59 75 82 75 56 55 84 60 41 76 83 48 45 53 64 76 86 69 49 54 84 92 99 87 87 76 100 98 99 98 97 100 95 85 78 69 71 73 73 79 67 69 61 48
15 16 17 38 67 43 31 58 56 71 100 99 75 65 57 82 50 31 33 37 41 48 43 50 58 55 48 41 48 52 59 49 40 31 42 76 98 88 78 63 64 67 66 64 62 67 72 62 52 49 48 44 49 50
16 18 48 66 42 43 63 57 90 100 100 98 86 60 79 57 27 26 29 38 38 40 41 34 34 38 37 34 38 51 60 57 56 43 58 74 72 64 53 49 54 52 52 51 56 62 59 61 60 55 52 50 52 55
51 65 68 60 78 78 71 99 100 100 98 71 48 78 72 24 21 26 38 36 56 72 82 78 70 50 58 93 100 100 99 100 99 96 71 67 46 43 45 46 45 46 54 63 72 75 77 75 76 72 67 70 65 71
66 92 100 97 89 100 100 100 100 95 99 66 94 96 27 20 26 41 47 63 84 83 99 100 98 100 100 95 100 100 100 100 100 100 95 76 55 47 61 71 84 90 87 78 65 56 54 53 51 48 47 50 49 48
100 99 100 100 100 100 100 100 86 82 100 99 92 34 25 28 40 58 70 84 90 100 100 100 100 100 100 100 100 100 100 100 100 97 96 96 95 95 93 92 83 68 62 55 48 48 47 49 51 51 53 60 64 70
100 100 100 100 100 100 100 82 97 100 100 88 37 36 48 40 52 74 85 94 95 96 100 100 100 100 100 100 98 93 96 99 98 94 89 85 74 71 67 68 70 66 59 56 54 55 56 62 75 88 96 97 95 95
95 94 100 100 99 100 100 100 100 100 78 66 72 63 46 44 61 76 86 96 97 100 96 94 93 91 90 91 99 85 64 64 68 67 65 59 65 69 72 75 77 77 82 84 89 95 99 100 100 100 100 100 100 100
100 90 86 92 99 100 100 97 82 69 68 73 76 54 39 37 53 66 83 95 97 90 82 73 96 99 97 80 54 51 52 56 62 59 67 69 73 79 87 96 100 100 100 94 75 58 48 50 48 47 50 53 55 58
91 69 94 100 100 86 68 77 73 76 89 95 97 74 37 30 38 57 71 73 74 71 72 83 80 77 71 56 72 66 68 72 71 68 72 81 89 98 100 92 61 44 48 58 63 66 70 74 76 78 80 84 90 94
90 95 100 86 82 99 88 92 99 100 100 100 100 96 84 64 46 41 51 60 62 68 66 49 45 43 56 75 74 68 63 66 80 87 95 95 72 51 52 57 59 59 59 62 70 77 83 93 98 95 90 85 79 67
100 90 88 88 100 100 100 100 100 99 96 100 100 100 99 96 76 64 60 65 54 40 42 41 53 64 59 59 60 70 82 93 98 65 46 55 56 54 52 52 54 56 56 62 68 73 81 78 68 53 36 25 22 22
98 97 96 88 94 98 100 100 100 100 100 95 92 86 78 70 62 54 44 38 38 42 50 52 51 58 66 76 85 93 81 54 50 54 52 52 53 55 57 60 58 57 62 66 71 74 67 48 31 26 26 26 25 22
100 100 100 100 95 98 100 98 92 83 81 71 60 52 48 44 41 46 54 55 55 58 65 69 75 82 85 83 57 50 52 53 49 50 54 58 62 65 65 64 64 65 71 76 74 51 32 29 29 28 25 20 17 16
99 100 100 92 86 91 81 80 76 62 61 52 52 55 59 63 74 82 80 77 74 73 79 86 89 72 52 50 54 54 50 52 56 62 67 71 73 74 72 72 73 76 81 68 39 31 30 30 26 20 18 18 20 23
100 95 91 94 94 93 71 62 57 53 59 59 65 76 80 76 76 76 74 74 82 86 83 49 46 54 56 56 54 54 60 68 76 81 79 78 80 79 80 80 82 86 60 36 33 33 29 20 18 18 22 25 29 32
89 90 98 100 100 100 90 80 68 64 63 65 68 63 62 73 80 82 80 82 71 34 43 56 57 57 58 59 63 71 77 81 84 85 84 86 87 85 86 85 85 54 38 35 34 25 18 17 18 22 27 32 39 43
89 93 95 90 75 66 58 48 46 46 45 49 55 63 76 80 83 83 55 31 48 57 57 57 59 63 68 71 72 74 80 87 90 87 87 87 86 85 84 81 53 39 36 33 23 17 17 19 22 27 33 43 52 56
100 91 59 33 28 26 26 28 30 35 44 55 65 71 75 80 50 26 48 57 57 58 61 65 70 76 76 75 78 82 87 91 89 86 85 87 84 84 79 53 40 38 33 22 17 18 18 21 25 33 46 58 64 65
100 92 55 22 20 20 23 29 38 46 54 62 68 70 49 29 47 56 56 56 58 63 68 82 88 86 76 74 81 90 93 90 88 86 86 86 85 77 55 42 40 33 23 18 18 19 21 24 32 46 58 65 65 54
100 89 56 38 32 32 38 44 52 59 62 56 38 34 46 51 53 53 54 59 65 77 88 90 83 81 83 82 87 95 92 89 87 86 87 85 76 58 44 39 34 24 18 18 19 21 25 32 42 48 50 48 43 39
72 78 66 59 59 59 61 62 58 37 25 35 47 51 53 54 55 59 66 78 83 76 62 56 58 65 69 88 98 95 89 88 89 87 86 77 61 46 40 35 26 20 18 20 20 22 25 32 38 38 38 38 39 40
22 31 45 44 33 19 15 18 27 36 42 48 50 55 52 50 48 51 53 57 52 48 49 50 47 54 87 100 97 93 88 91 89 86 79 63 49 41 36 28 21 19 20 21 22 24 29 34 36 38 41 42 43 44
34 24 18 12 10 11 15 21 24 26 29 28 30 29 32 34 31 37 37 43 48 56 54 40 48 84 100 99 98 92 93 92 86 79 63 50 42 37 30 23 20 21 22 22 25 29 33 36 38 42 45 47 47 48

GFSWCAN_500_rhum_081.txt.gz
RH
49 47 44 37 25 25 37 43 62 76 88 80 58 23 15 15 14 13 15 14 12 12 17 38 42 41 34 22 17 26 25 51 27 26 88 98 100 100 100 70 97 97 97 98 100 100 89 75 73 59 43 38 38 42
41 40 43 44 43 36 25 30 33 25 22 24 21 16 16 15 14 15 16 15 13 15 32 55 54 43 28 21 23 38 38 55 41 38 39 100 100 93 100 84 72 100 98 100 97 94 71 61 46 54 45 27 34 45
34 31 29 32 37 44 44 35 26 30 29 18 13 13 12 13 13 15 19 16 15 27 53 75 54 48 29 28 26 36 49 66 61 47 71 99 100 79 95 100 97 89 92 94 100 87 55 40 37 33 28 21 34 55
33 31 27 26 26 26 33 42 44 35 28 28 22 15 14 15 16 18 20 18 31 54 76 76 65 53 54 34 38 29 48 67 79 68 79 92 84 88 87 98 98 100 97 84 73 62 30 26 30 32 27 22 40 53
23 17 13 12 12 14 21 23 30 41 39 26 23 19 16 16 19 20 19 26 58 93 95 73 79 89 92 71 55 34 38 68 78 92 82 82 87 96 96 78 95 85 81 67 42 32 48 79 80 89 70 52 39 30
17 15 15 15 16 16 14 14 18 24 40 35 23 20 17 18 21 22 22 46 66 84 93 100 99 93 100 100 88 45 35 77 78 66 73 76 64 67 86 99 98 100 74 52 37 50 100 97 100 100 100 100 82 90
21 19 17 18 19 20 17 15 13 19 34 38 27 20 19 19 22 23 50 62 83 98 100 95 85 100 98 93 85 53 31 67 81 70 66 63 60 49 90 100 100 100 92 100 100 100 100 100 100 100 100 100 100 100
22 21 20 20 20 18 15 14 12 18 38 38 28 21 22 21 22 32 74 88 98 100 99 96 90 100 97 92 100 96 48 82 79 85 68 49 40 29 58 59 98 100 100 100 100 100 100 100 100 100 100 100 100 100
22 20 18 17 16 15 14 14 15 20 46 41 26 25 26 22 28 70 84 83 86 100 100 100 100 92 70 83 96 68 95 90 74 83 68 52 64 50 56 61 76 100 100 100 100 100 100 97 97 100 100 100 99 99
28 24 20 18 17 17 17 16 28 52 59 36 30 28 24 31 70 76 74 71 97 100 87 100 70 85 58 100 84 100 98 79 84 100 100 100 93 61 50 100 100 97 100 100 100 100 99 100 99 75 62 59 66 81
22 19 20 20 22 21 19 23 73 72 48 34 29 27 46 82 91 73 79 94 91 57 58 46 69 61 75 82 100 92 100 99 100 100 93 73 77 64 74 100 94 72 82 59 50 62 65 59 62 66 64 58 58 61
30 30 31 30 28 27 23 56 81 52 38 32 34 66 100 99 75 77 92 57 37 42 53 56 49 87 100 100 100 99 76 78 89 78 34 46 63 85 100 98 95 87 76 68 62 51 48 47 44 45 44 44 47 48
32 31 30 29 26 25 34 73 56 39 43 53 93 100 100 86 70 75 35 33 39 46 45 33 51 62 63 66 58 50 45 56 81 76 79 61 68 62 56 54 49 38 32 30 32 37 40 48 59 76 81 82 81 73
30 30 29 27 24 28 66 54 41 55 96 100 100 98 82 81 67 29 29 32 42 38 36 38 41 40 46 72 55 94 100 100 100 94 86 63 67 56 44 39 38 33 29 30 31 42 79 87 77 67 58 48 44 42
24 23 24 23 25 59 51 49 77 100 100 100 100 95 76 67 27 29 31 35 34 28 29 31 35 63 98 100 100 99 100 100 99 100 93 81 69 58 49 48 50 48 48 63 84 77 60 49 42 40 46 48 53 59
21 21 21 29 56 49 58 99 100 100 100 100 84 89 68 25 31 54 93 97 91 98 82 71 84 100 100 99 99 99 99 96 94 92 94 99 97 86 76 67 60 59 57 54 50 49 58 67 65 58 53 52 51 51
19 20 37 54 51 69 100 100 100 100 92 87 100 82 27 29 42 92 97 94 92 90 89 81 80 90 99 100 100 100 100 99 93 90 82 60 50 47 44 42 47 62 71 71 59 51 50 50 49 48 48 48 48 48
46 54 51 55 78 100 100 100 100 100 97 100 90 37 26 35 49 74 75 75 88 96 100 100 100 100 100 100 100 88 56 52 53 51 50 49 62 71 76 68 53 48 46 45 46 46 44 42 43 45 47 50 52 56
53 65 82 92 99 100 100 100 100 100 100 82 43 27 36 44 47 58 70 78 83 98 100 83 100 100 100 99 90 59 56 63 62 62 76 83 70 53 49 49 49 50 49 48 45 43 45 49 52 55 58 64 67 64
100 100 100 100 100 100 99 98 100 98 74 45 37 32 47 48 45 43 57 74 86 91 84 74 75 67 70 73 54 53 62 69 81 88 70 51 52 50 52 54 54 53 52 48 45 47 49 52 57 64 68 62 48 37
100 100 100 100 100 100 99 100 97 76 70 68 49 45 47 52 52 57 62 64 66 65 60 62 52 44 43 51 59 60 71 83 82 58 53 50 53 55 58 59 58 53 51 48 49 52 52 54 62 65 53 39 33 31
98 100 100 100 100 100 100 97 84 84 93 94 66 45 38 42 47 48 49 55 55 47 49 51 41 53 58 57 66 77 84 68 54 51 53 57 61 63 62 61 59 56 54 52 54 55 58 64 61 48 37 33 30 26
100 100 100 100 97 99 79 92 100 100 100 78 65 44 34 34 35 40 40 37 35 44 46 41 51 53 66 72 79 75 56 54 53 56 63 66 67 66 65 65 64 61 61 61 61 65 64 56 45 37 34 30 24 19
100 100 100 100 90 100 100 100 98 90 97 87 78 61 40 34 30 30 32 42 44 37 40 48 66 71 74 72 59 54 55 56 59 66 69 71 73 74 75 76 73 70 68 64 64 61 53 44 37 34 28 22 19 18
97 98 100 98 100 94 90 93 96 97 100 91 84 76 64 53 50 48 42 38 38 45 65 73 73 73 65 52 54 57 60 65 72 81 93 88 81 82 83 82 80 74 70 66 61 52 44 38 32 26 20 19 19 20
95 83 86 88 90 97 95 100 97 98 88 77 69 62 54 45 38 38 51 61 71 74 74 76 71 51 52 57 59 62 71 86 98 96 83 84 86 89 89 86 83 77 72 63 54 45 38 31 25 19 19 20 22 22
93 86 92 98 100 97 94 91 82 72 60 49 48 43 38 38 53 67 71 76 75 74 75 59 43 53 57 62 68 89 99 99 84 70 74 84 89 92 90 89 84 78 70 58 48 38 31 26 19 19 21 22 22 24
97 100 100 100 92 86 82 70 60 45 39 37 38 39 48 58 70 77 77 76 76 68 42 46 56 59 63 71 96 100 91 76 65 59 73 88 92 92 92 89 84 77 65 53 41 33 28 20 19 22 22 22 23 26
100 100 100 100 100 95 81 68 52 42 36 35 42 57 59 68 73 75 76 70 42 40 55 58 60 63 66 92 97 89 82 70 67 64 85 93 94 94 92 90 84 72 59 46 37 34 24 20 22 22 21 22 24 26
92 88 83 79 77 71 62 49 46 35 32 42 49 51 58 69 71 71 56 38 44 56 59 60 57 54 75 98 94 78 70 67 64 85 94 95 97 96 94 91 81 66 52 43 40 30 21 22 23 21 22 24 25 26
91 89 84 74 62 62 54 42 34 36 41 40 42 53 62 67 68 56 42 42 56 60 58 55 56 68 81 60 46 62 63 54 64 87 96 98 99 98 94 89 73 58 48 45 38 24 21 23 21 21 24 26 26 28
100 99 91 81 55 32 27 30 30 32 36 46 55 61 62 60 55 50 44 47 58 58 52 46 45 38 32 34 38 37 30 32 47 93 99 100 100 97 93 81 64 51 49 44 30 22 23 22 21 23 25 27 33 41
83 80 83 92 73 40 24 24 26 34 44 52 57 58 55 56 60 53 48 54 56 54 47 38 31 28 24 24 25 25 27 32 76 99 100 100 100 94 85 70 55 50 47 35 24 24 24 21 22 25 33 40 41 40